Location: Izdebno
(52.6670°N, 16.2170°E)
Time: 12:48:10
(UTC+02:00)

A-11 Canister half - Pass Details

Date: 16 February 2023
Orbit: 1526 x 1682 km, 47.3° (Epoch: 26 March)

Event Time Altitude Azimuth Distance (km) Brightness Sun altitude
Rises 05:18:24 0° 263° (W) 4,688 - -17.5°
Reaches altitude 10° 05:21:28 10° 261° (W) 3,699 - -17.1°
Exits shadow 05:24:04 21° 257° (WSW) 2,896 9.8 -16.7°
Maximum altitude 05:30:36 64° 183° (S) 1,668 9.1 -15.7°
Drops below altitude 10° 05:39:48 10° 105° (ESE) 3,725 12.3 -14.3°
Sets 05:42:54 0° 102° (ESE) 4,723 13.4 -13.8°
